02:13
Airports
History
Links
Donate
Help keep this website running!
PayPal
Bitcoin
This page is community maintained. The information is intended for PC simulator navigation or reference.
Always use approved charts for navigation.
EDLT
Muenster-Telgte
Muenster-Telgte (EDLT)
Telgte, Nordrhein-Westfalen, Germany (48291)
(U)
Lat/Lng:51° 56' 40.24" N / 7° 46' 25.52" E
51.94451 / 7.773755
Elevation:177'ft / 54mMSL
ID / ICAO:EDLT
Runways:1
Longest:10-28
Asphalt 676m / 2,218ft
Nearby Weather01:50 GMT 2017-12-11
Nearby weather at EDDG, Muenster Osnabrueck located 13.7 nautical miles from EDLT
Altimeter: 29.03
Visibility: 6.2 statute miles
Wind: 12 knots (from 260°)
Temp: 0°c / 32°f
Humidity: %

METAR: EDDG 110150Z 26012KT 9999 FEW008 BKN011 00/M01 Q0983 R25/290190 BECMG BKN015

(Powered by phpweather)
Nearby VORs <50NM
Nearby NDBs
Runway 10 / 28
Dimensions:675.9 x 20.1m 2218' x 66'ft
Surface:Asphalt
Runway 10 [A]Runway 28 [B]
Heading:097°TH 277°TH
Lat:
Lng:
51° 56' 41.58"N
7° 46' 7.78"E
51° 56' 38.89"N
7° 46' 43.25"E
User Notes and Comments
51° 56' 40.24" N / 7° 46' 25.52" E
Distance To
Airport ID:
Nearby Airports
(C) Muenster Osnabrueck 13.7 NM
EDDG ( WX ) NNW 343°
(C) GUTERSLOH 22.7 NM
ETUO ( WX ) E 93°
(U) Borkenberge 23.8 NM
EDLB WSW 241°
(C) Kamen 24.6 NM
ED03 S 186°
(U) Osnabrueck Atterheide 25.1 NM
EDWO NNE 20°
(C) Rheine-Eschendorf 25.8 NM
EDXE NNW 332°
(C) RHEINE BENTLAGE 29.0 NM
ETHE ( WX ) NW 325°
VFR Chart
Flight Planning at SkyVector.com